| time (UTC) | temp F | wind direction | speed MPH | gust MPH | rain 1hr in | rain 24hr in | rain mn in | humidity % | barometer mb |
| 20260510145003 | 42 | 107 | 4.0 | 9.0 | 0.00 | 0.00 | 0.00 | 82 | 1040.5 |
| 20260510144503 | 41 | 105 | 4.0 | 9.0 | 0.00 | 0.00 | 0.00 | 84 | 1040.4 |
| 20260510144003 | 41 | 98 | 3.0 | 8.0 | 0.00 | 0.00 | 0.00 | 85 | 1040.4 |
| 20260510143503 | 40 | 90 | 3.0 | 7.0 | 0.00 | 0.00 | 0.00 | 87 | 1040.3 |
| 20260510143003 | 40 | 90 | 3.0 | 7.0 | 0.00 | 0.00 | 0.00 | 86 | 1040.3 |
| 20260510142503 | 40 | 89 | 3.0 | 7.0 | 0.00 | 0.00 | 0.00 | 85 | 1040.2 |
| 20260510142003 | 40 | 99 | 3.0 | 7.0 | 0.00 | 0.00 | 0.00 | 85 | 1040.1 |
| 20260510141503 | 40 | 116 | 2.0 | 7.0 | 0.00 | 0.00 | 0.00 | 85 | 1040.0 |
| 20260510141003 | 40 | 157 | 1.0 | 4.0 | 0.00 | 0.00 | 0.00 | 84 | 1039.9 |
| 20260510140503 | 40 | 139 | 2.0 | 4.0 | 0.00 | 0.00 | 0.00 | 85 | 1039.8 |
| 20260510140003 | 40 | 137 | 2.0 | 6.0 | 0.00 | 0.00 | 0.00 | 87 | 1039.7 |
| 20260510135503 | 39 | 124 | 3.0 | 8.0 | 0.00 | 0.00 | 0.00 | 88 | 1039.6 |
| 20260510135003 | 39 | 112 | 3.0 | 8.0 | 0.00 | 0.00 | 0.00 | 89 | 1039.7 |
| 20260510134718 | 38 | 108 | 2.0 | 6.0 | 0.00 | 0.00 | 0.00 | 89 | 1039.8 |
| 20260510134003 | 38 | 98 | 1.0 | 4.0 | 0.00 | 0.00 | 0.00 | 91 | 1039.9 |
| 20260510133503 | 38 | 92 | 1.0 | 4.0 | 0.00 | 0.00 | 0.00 | 91 | 1039.9 |
| 20260510133003 | 38 | 86 | 1.0 | 3.0 | 0.00 | 0.00 | 0.00 | 91 | 1039.8 |
| 20260510132720 | 37 | 83 | 1.0 | 3.0 | 0.00 | 0.00 | 0.00 | 92 | 1039.8 |
| 20260510132003 | 37 | 83 | 1.0 | 2.0 | 0.00 | 0.00 | 0.00 | 92 | 1039.8 |
| 20260510131503 | 37 | 83 | 1.0 | 2.0 | 0.00 | 0.00 | 0.00 | 92 | 1039.8 |
| 20260510131003 | 37 | 83 | 1.0 | 2.0 | 0.00 | 0.00 | 0.00 | 92 | 1039.7 |
| 20260510130716 | 37 | 83 | 0.0 | 2.0 | 0.00 | 0.00 | 0.00 | 92 | 1039.7 |
| 20260510130003 | 37 | 83 | 0.0 | 1.0 | 0.00 | 0.00 | 0.00 | 92 | 1039.7 |
| 20260510125503 | 37 | 83 | 0.0 | 2.0 | 0.00 | 0.00 | 0.00 | 92 | 1039.6 |
| 20260510125003 | 37 | 83 | 1.0 | 3.0 | 0.00 | 0.00 | 0.00 | 92 | 1039.5 |
| 20260510124503 | 37 | 83 | 1.0 | 3.0 | 0.00 | 0.00 | 0.00 | 92 | 1039.4 |
| 20260510124222 | 37 | 83 | 1.0 | 3.0 | 0.00 | 0.00 | 0.00 | 92 | 1039.4 |
| 20260510123720 | 37 | 83 | 0.0 | 1.0 | 0.00 | 0.00 | 0.00 | 92 | 1039.4 |
| 20260510123003 | 37 | 83 | 0.0 | 1.0 | 0.00 | 0.00 | 0.00 | 92 | 1039.4 |
| 20260510122720 | 37 | 83 | 0.0 | 1.0 | 0.00 | 0.00 | 0.00 | 92 | 1039.3 |
| 20260510122003 | 36 | 83 | 0.0 | 2.0 | 0.00 | 0.00 | 0.00 | 92 | 1039.3 |
| 20260510121503 | 36 | 83 | 0.0 | 2.0 | 0.00 | 0.00 | 0.00 | 92 | 1039.2 |
| 20260510121003 | 36 | 83 | 1.0 | 2.0 | 0.00 | 0.00 | 0.00 | 92 | 1039.2 |
| 20260510120503 | 36 | 83 | 1.0 | 2.0 | 0.00 | 0.00 | 0.00 | 92 | 1039.2 |
| 20260510120003 | 36 | 83 | 1.0 | 3.0 | 0.00 | 0.00 | 0.00 | 92 | 1039.1 |
| 20260510115718 | 36 | 83 | 1.0 | 3.0 | 0.00 | 0.00 | 0.00 | 92 | 1039.1 |
| 20260510115003 | 36 | 82 | 1.0 | 3.0 | 0.00 | 0.00 | 0.00 | 92 | 1039.1 |
| 20260510114503 | 36 | 82 | 1.0 | 4.0 | 0.00 | 0.00 | 0.00 | 92 | 1039.1 |
| 20260510114217 | 36 | 83 | 1.0 | 4.0 | 0.00 | 0.00 | 0.00 | 92 | 1039.1 |
| 20260510113503 | 36 | 85 | 1.0 | 3.0 | 0.00 | 0.00 | 0.00 | 92 | 1039.1 |
| 20260510113003 | 36 | 87 | 1.0 | 3.0 | 0.00 | 0.00 | 0.00 | 92 | 1039.0 |
| 20260510112503 | 36 | 93 | 1.0 | 3.0 | 0.00 | 0.00 | 0.00 | 92 | 1039.0 |
| 20260510112003 | 36 | 108 | 0.0 | 2.0 | 0.00 | 0.00 | 0.00 | 92 | 1039.0 |
| 20260510111503 | 36 | 108 | 1.0 | 3.0 | 0.00 | 0.00 | 0.00 | 91 | 1039.0 |
| 20260510111003 | 36 | 98 | 1.0 | 3.0 | 0.00 | 0.00 | 0.00 | 91 | 1039.0 |
| 20260510110503 | 36 | 89 | 2.0 | 4.0 | 0.00 | 0.00 | 0.00 | 91 | 1039.0 |
| 20260510110003 | 37 | 87 | 2.0 | 5.0 | 0.00 | 0.00 | 0.00 | 91 | 1039.1 |
| 20260510105503 | 37 | 92 | 2.0 | 5.0 | 0.00 | 0.00 | 0.00 | 91 | 1038.9 |
| 20260510105003 | 37 | 95 | 2.0 | 4.0 | 0.00 | 0.00 | 0.00 | 91 | 1039.0 |
| 20260510104503 | 37 | 93 | 2.0 | 4.0 | 0.00 | 0.00 | 0.00 | 91 | 1039.0 |
| 20260510104218 | 37 | 96 | 2.0 | 6.0 | 0.00 | 0.00 | 0.00 | 91 | 1039.0 |
| 20260510103721 | 37 | 95 | 2.0 | 6.0 | 0.00 | 0.00 | 0.00 | 91 | 1039.0 |
| 20260510103003 | 37 | 84 | 2.0 | 6.0 | 0.00 | 0.00 | 0.00 | 91 | 1038.9 |
| 20260510102503 | 37 | 83 | 2.0 | 7.0 | 0.00 | 0.00 | 0.00 | 91 | 1038.9 |
| 20260510102003 | 37 | 86 | 2.0 | 7.0 | 0.00 | 0.00 | 0.00 | 90 | 1038.9 |
| 20260510101503 | 37 | 95 | 2.0 | 7.0 | 0.00 | 0.00 | 0.00 | 90 | 1038.8 |
| 20260510101003 | 37 | 92 | 3.0 | 7.0 | 0.00 | 0.00 | 0.00 | 90 | 1038.7 |
| 20260510100503 | 37 | 89 | 2.0 | 7.0 | 0.00 | 0.00 | 0.00 | 90 | 1038.7 |
| 20260510100003 | 38 | 95 | 2.0 | 4.0 | 0.00 | 0.00 | 0.00 | 90 | 1038.7 |
| 20260510095503 | 38 | 97 | 2.0 | 4.0 | 0.00 | 0.00 | 0.00 | 90 | 1038.7 |
| 20260510095003 | 38 | 95 | 2.0 | 6.0 | 0.00 | 0.00 | 0.00 | 89 | 1038.7 |
| 20260510094503 | 38 | 89 | 2.0 | 6.0 | 0.00 | 0.00 | 0.00 | 89 | 1038.7 |
| 20260510094003 | 38 | 87 | 3.0 | 7.0 | 0.00 | 0.00 | 0.00 | 89 | 1038.8 |
| 20260510093503 | 38 | 87 | 3.0 | 8.0 | 0.00 | 0.00 | 0.00 | 89 | 1038.8 |
| 20260510093003 | 38 | 86 | 4.0 | 8.0 | 0.00 | 0.00 | 0.00 | 88 | 1038.8 |
| 20260510092717 | 38 | 85 | 4.0 | 8.0 | 0.00 | 0.00 | 0.00 | 88 | 1038.8 |
| 20260510092003 | 38 | 86 | 3.0 | 7.0 | 0.00 | 0.00 | 0.00 | 87 | 1038.8 |
| 20260510091503 | 38 | 86 | 2.0 | 6.0 | 0.00 | 0.00 | 0.00 | 87 | 1038.8 |
| 20260510091221 | 38 | 86 | 2.0 | 6.0 | 0.00 | 0.00 | 0.00 | 87 | 1038.8 |
| 20260510090719 | 39 | 86 | 3.0 | 7.0 | 0.00 | 0.00 | 0.00 | 86 | 1038.7 |
| 20260510090003 | 39 | 94 | 2.0 | 7.0 | 0.00 | 0.00 | 0.00 | 85 | 1038.5 |
| 20260510085503 | 39 | 106 | 2.0 | 8.0 | 0.00 | 0.00 | 0.00 | 84 | 1038.5 |
| 20260510085218 | 39 | 105 | 2.0 | 8.0 | 0.00 | 0.00 | 0.00 | 83 | 1038.4 |
| 20260510084503 | 40 | 102 | 2.0 | 8.0 | 0.00 | 0.00 | 0.00 | 82 | 1038.3 |
| 20260510084004 | 40 | 105 | 3.0 | 10.0 | 0.00 | 0.00 | 0.00 | 82 | 1038.2 |
| 20260510083503 | 40 | 106 | 2.0 | 10.0 | 0.00 | 0.00 | 0.00 | 81 | 1038.1 |
| 20260510083003 | 40 | 108 | 4.0 | 11.0 | 0.00 | 0.00 | 0.00 | 81 | 1038.0 |
| 20260510082503 | 40 | 107 | 6.0 | 11.0 | 0.00 | 0.00 | 0.00 | 81 | 1037.9 |
| 20260510082004 | 40 | 109 | 6.0 | 11.0 | 0.00 | 0.00 | 0.00 | 80 | 1037.9 |
| 20260510081503 | 40 | 109 | 6.0 | 12.0 | 0.00 | 0.00 | 0.00 | 79 | 1037.9 |
| 20260510081003 | 40 | 109 | 4.0 | 12.0 | 0.00 | 0.00 | 0.00 | 79 | 1037.9 |
| 20260510080503 | 41 | 110 | 4.0 | 11.0 | 0.00 | 0.00 | 0.00 | 78 | 1037.9 |
| 20260510080003 | 41 | 108 | 5.0 | 11.0 | 0.00 | 0.00 | 0.00 | 77 | 1037.8 |
| 20260510075503 | 41 | 107 | 5.0 | 14.0 | 0.00 | 0.00 | 0.00 | 76 | 1037.8 |
| 20260510075003 | 42 | 107 | 5.0 | 14.0 | 0.00 | 0.00 | 0.00 | 75 | 1037.8 |
| 20260510074503 | 42 | 106 | 3.0 | 9.0 | 0.00 | 0.00 | 0.00 | 75 | 1037.7 |
| 20260510074003 | 42 | 100 | 3.0 | 7.0 | 0.00 | 0.00 | 0.00 | 74 | 1037.6 |
| 20260510073717 | 42 | 96 | 3.0 | 8.0 | 0.00 | 0.00 | 0.00 | 74 | 1037.5 |
| 20260510073003 | 42 | 96 | 4.0 | 10.0 | 0.00 | 0.00 | 0.00 | 74 | 1037.5 |
| 20260510072503 | 42 | 101 | 4.0 | 10.0 | 0.00 | 0.00 | 0.00 | 74 | 1037.5 |
| 20260510072003 | 42 | 109 | 4.0 | 9.0 | 0.00 | 0.00 | 0.00 | 73 | 1037.5 |
| 20260510071503 | 42 | 103 | 4.0 | 9.0 | 0.00 | 0.00 | 0.00 | 73 | 1037.5 |
| 20260510071217 | 42 | 99 | 3.0 | 10.0 | 0.00 | 0.00 | 0.00 | 73 | 1037.4 |
| 20260510070503 | 42 | 95 | 3.0 | 10.0 | 0.00 | 0.00 | 0.00 | 73 | 1037.5 |
| 20260510070003 | 42 | 96 | 3.0 | 8.0 | 0.00 | 0.00 | 0.00 | 72 | 1037.4 |
| 20260510065503 | 42 | 100 | 4.0 | 11.0 | 0.00 | 0.00 | 0.00 | 71 | 1037.3 |
| 20260510065003 | 42 | 99 | 3.0 | 11.0 | 0.00 | 0.00 | 0.00 | 70 | 1037.2 |
| 20260510064503 | 43 | 99 | 3.0 | 8.0 | 0.00 | 0.00 | 0.00 | 69 | 1037.1 |
| 20260510064003 | 43 | 99 | 4.0 | 9.0 | 0.00 | 0.00 | 0.00 | 69 | 1037.1 |
| 20260510063718 | 43 | 95 | 4.0 | 10.0 | 0.00 | 0.00 | 0.00 | 69 | 1037.0 |
| 20260510063003 | 43 | 92 | 4.0 | 10.0 | 0.00 | 0.00 | 0.00 | 67 | 1036.8 |
| 20260510062503 | 44 | 92 | 4.0 | 10.0 | 0.00 | 0.00 | 0.00 | 66 | 1036.7 |
| 20260510062003 | 44 | 91 | 3.0 | 8.0 | 0.00 | 0.00 | 0.00 | 65 | 1036.8 |
| 20260510061503 | 44 | 92 | 3.0 | 7.0 | 0.00 | 0.00 | 0.00 | 63 | 1036.6 |
| 20260510061003 | 45 | 90 | 2.0 | 6.0 | 0.00 | 0.00 | 0.00 | 62 | 1036.5 |
| 20260510060503 | 45 | 88 | 2.0 | 5.0 | 0.00 | 0.00 | 0.00 | 61 | 1036.4 |
| 20260510060003 | 45 | 90 | 3.0 | 7.0 | 0.00 | 0.00 | 0.00 | 60 | 1036.4 |
| 20260510055503 | 46 | 93 | 3.0 | 7.0 | 0.00 | 0.00 | 0.00 | 59 | 1036.2 |
| 20260510055003 | 46 | 96 | 2.0 | 6.0 | 0.00 | 0.00 | 0.00 | 57 | 1036.1 |
| 20260510054503 | 46 | 95 | 2.0 | 6.0 | 0.00 | 0.00 | 0.00 | 56 | 1036.1 |
| 20260510054003 | 47 | 92 | 2.0 | 4.0 | 0.00 | 0.00 | 0.00 | 55 | 1036.2 |
| 20260510053503 | 47 | 94 | 2.0 | 6.0 | 0.00 | 0.00 | 0.00 | 54 | 1036.2 |
| 20260510053003 | 47 | 90 | 3.0 | 6.0 | 0.00 | 0.00 | 0.00 | 53 | 1036.1 |
| 20260510052720 | 47 | 85 | 3.0 | 7.0 | 0.00 | 0.00 | 0.00 | 53 | 1036.1 |
| 20260510052218 | 48 | 86 | 2.0 | 7.0 | 0.00 | 0.00 | 0.00 | 52 | 1036.0 |
| 20260510051721 | 48 | 93 | 1.0 | 6.0 | 0.00 | 0.00 | 0.00 | 50 | 1035.9 |
| 20260510051003 | 49 | 94 | 1.0 | 6.0 | 0.00 | 0.00 | 0.00 | 48 | 1035.9 |
| 20260510050503 | 49 | 94 | 2.0 | 4.0 | 0.00 | 0.00 | 0.00 | 47 | 1035.8 |
| 20260510050004 | 49 | 98 | 2.0 | 11.0 | 0.00 | 0.00 | 0.00 | 45 | 1035.8 |
| 20260510045503 | 49 | 92 | 2.0 | 11.0 | 0.00 | 0.00 | 0.00 | 44 | 1035.7 |
| 20260510045221 | 50 | 88 | 2.0 | 11.0 | 0.00 | 0.00 | 0.00 | 44 | 1035.7 |
| 20260510044503 | 50 | 81 | 2.0 | 9.0 | 0.00 | 0.00 | 0.00 | 42 | 1035.5 |
| 20260510044003 | 50 | 85 | 2.0 | 9.0 | 0.00 | 0.00 | 0.00 | 42 | 1035.4 |
| 20260510043719 | 50 | 86 | 2.0 | 9.0 | 0.00 | 0.00 | 0.00 | 42 | 1035.5 |
| 20260510043217 | 49 | 94 | 1.0 | 3.0 | 0.00 | 0.00 | 0.00 | 42 | 1035.4 |
| 20260510042504 | 49 | 79 | 1.0 | 3.0 | 0.00 | 0.00 | 0.00 | 42 | 1035.4 |
| 20260510042003 | 49 | 16 | 0.0 | 2.0 | 0.00 | 0.00 | 0.00 | 43 | 1035.3 |
| 20260510041721 | 49 | 12 | 0.0 | 2.0 | 0.00 | 0.00 | 0.00 | 43 | 1035.2 |
| 20260510041003 | 49 | 9 | 0.0 | 2.0 | 0.00 | 0.00 | 0.00 | 42 | 1035.1 |
| 20260510040503 | 49 | 4 | 0.0 | 2.0 | 0.00 | 0.00 | 0.00 | 43 | 1035.0 |
| 20260510040003 | 49 | 351 | 1.0 | 2.0 | 0.00 | 0.00 | 0.00 | 43 | 1034.9 |
| 20260510035503 | 49 | 342 | 1.0 | 2.0 | 0.00 | 0.00 | 0.00 | 43 | 1034.9 |
| 20260510035003 | 48 | 333 | 0.0 | 2.0 | 0.00 | 0.00 | 0.00 | 43 | 1034.8 |
| 20260510034503 | 48 | 328 | 0.0 | 2.0 | 0.00 | 0.00 | 0.00 | 43 | 1034.8 |
| 20260510034003 | 49 | 329 | 1.0 | 2.0 | 0.00 | 0.00 | 0.00 | 46 | 1034.7 |
| 20260510033503 | 49 | 329 | 1.0 | 4.0 | 0.00 | 0.00 | 0.00 | 44 | 1034.7 |
| 20260510033003 | 49 | 324 | 1.0 | 4.0 | 0.00 | 0.00 | 0.00 | 43 | 1034.5 |
| 20260510032721 | 49 | 323 | 1.0 | 4.0 | 0.00 | 0.00 | 0.00 | 43 | 1034.5 |
| 20260510032003 | 49 | 317 | 0.0 | 1.0 | 0.00 | 0.00 | 0.00 | 43 | 1034.4 |
| 20260510031717 | 49 | 317 | 0.0 | 1.0 | 0.00 | 0.00 | 0.00 | 42 | 1034.4 |
| 20260510031220 | 50 | 317 | 0.0 | 1.0 | 0.00 | 0.00 | 0.00 | 43 | 1034.4 |
| 20260510030503 | 50 | 317 | 0.0 | 1.0 | 0.00 | 0.00 | 0.00 | 40 | 1034.3 |
| 20260510030221 | 50 | 317 | 0.0 | 1.0 | 0.00 | 0.00 | 0.00 | 40 | 1034.2 |
| 20260510025503 | 51 | 317 | 0.0 | 1.0 | 0.00 | 0.00 | 0.00 | 39 | 1034.2 |
| 20260510025003 | 51 | 316 | 0.0 | 1.0 | 0.00 | 0.00 | 0.00 | 38 | 1034.1 |
| 20260510024503 | 52 | 316 | 0.0 | 1.0 | 0.00 | 0.00 | 0.00 | 37 | 1034.0 |
| 20260510024003 | 52 | 316 | 0.0 | 2.0 | 0.00 | 0.00 | 0.00 | 37 | 1033.9 |
| 20260510023721 | 52 | 317 | 0.0 | 4.0 | 0.00 | 0.00 | 0.00 | 37 | 1034.0 |
| 20260510023003 | 52 | 327 | 1.0 | 4.0 | 0.00 | 0.00 | 0.00 | 36 | 1033.8 |
| 20260510022504 | 53 | 103 | 1.0 | 6.0 | 0.00 | 0.00 | 0.00 | 36 | 1033.7 |
| 20260510022003 | 53 | 99 | 3.0 | 9.0 | 0.00 | 0.00 | 0.00 | 35 | 1033.5 |
| 20260510021503 | 53 | 89 | 4.0 | 9.0 | 0.00 | 0.00 | 0.00 | 34 | 1033.5 |
| 20260510021003 | 54 | 84 | 3.0 | 9.0 | 0.00 | 0.00 | 0.00 | 33 | 1033.3 |
| 20260510020503 | 54 | 84 | 2.0 | 7.0 | 0.00 | 0.00 | 0.00 | 32 | 1033.2 |
| 20260510020003 | 55 | 95 | 2.0 | 4.0 | 0.00 | 0.00 | 0.00 | 31 | 1033.3 |
| 20260510015503 | 56 | 104 | 2.0 | 6.0 | 0.00 | 0.00 | 0.00 | 29 | 1033.2 |
| 20260510015003 | 56 | 82 | 1.0 | 6.0 | 0.00 | 0.00 | 0.00 | 27 | 1033.2 |
| 20260510014503 | 57 | 321 | 1.0 | 2.0 | 0.00 | 0.00 | 0.00 | 21 | 1033.2 |
| 20260510014003 | 57 | 318 | 1.0 | 4.0 | 0.00 | 0.00 | 0.00 | 21 | 1033.0 |
| 20260510013503 | 57 | 315 | 1.0 | 4.0 | 0.00 | 0.00 | 0.00 | 21 | 1032.9 |
| 20260510013219 | 57 | 308 | 1.0 | 4.0 | 0.00 | 0.00 | 0.00 | 22 | 1032.8 |
| 20260510012503 | 58 | 300 | 1.0 | 2.0 | 0.00 | 0.00 | 0.00 | 21 | 1032.7 |
| 20260510012003 | 58 | 303 | 1.0 | 3.0 | 0.00 | 0.00 | 0.00 | 21 | 1032.7 |
| 20260510011503 | 58 | 311 | 2.0 | 5.0 | 0.00 | 0.00 | 0.00 | 20 | 1032.6 |
| 20260510011221 | 58 | 314 | 2.0 | 5.0 | 0.00 | 0.00 | 0.00 | 20 | 1032.5 |
| 20260510010503 | 59 | 316 | 3.0 | 5.0 | 0.00 | 0.00 | 0.00 | 19 | 1032.5 |
| 20260510010217 | 59 | 315 | 3.0 | 8.0 | 0.00 | 0.00 | 0.00 | 19 | 1032.4 |
| 20260510005503 | 59 | 313 | 2.0 | 8.0 | 0.00 | 0.00 | 0.00 | 18 | 1032.4 |
| 20260510005003 | 59 | 320 | 1.0 | 6.0 | 0.00 | 0.00 | 0.00 | 19 | 1032.4 |
| 20260510004503 | 59 | 317 | 1.0 | 6.0 | 0.00 | 0.00 | 0.00 | 19 | 1032.3 |
| 20260510004003 | 59 | 302 | 2.0 | 11.0 | 0.00 | 0.00 | 0.00 | 19 | 1032.3 |
| 20260510003503 | 59 | 301 | 2.0 | 11.0 | 0.00 | 0.00 | 0.00 | 19 | 1032.3 |
| 20260510003220 | 60 | 313 | 2.0 | 11.0 | 0.00 | 0.00 | 0.00 | 18 | 1032.3 |
| 20260510002718 | 60 | 355 | 2.0 | 8.0 | 0.00 | 0.00 | 0.00 | 18 | 1032.2 |
| 20260510002003 | 60 | 299 | 5.0 | 11.0 | 0.00 | 0.00 | 0.00 | 18 | 1032.2 |
| 20260510001504 | 60 | 286 | 5.0 | 10.0 | 0.00 | 0.00 | 0.00 | 17 | 1032.2 |
| 20260510001217 | 60 | 273 | 4.0 | 10.0 | 0.00 | 0.00 | 0.00 | 17 | 1032.2 |
| 20260510000503 | 60 | 287 | 4.0 | 10.0 | 0.00 | 0.00 | 0.00 | 16 | 1032.1 |
| 20260510000004 | 60 | 286 | 5.0 | 20.0 | 0.00 | 0.00 | 0.00 | 17 | 1032.1 |
| 20260509235503 | 60 | 293 | 7.0 | 20.0 | 0.00 | 0.00 | 0.00 | 17 | 1032.0 |
| 20260509235003 | 60 | 297 | 9.0 | 19.0 | 0.00 | 0.00 | 0.00 | 15 | 1031.9 |
| 20260509234503 | 60 | 299 | 9.0 | 21.0 | 0.00 | 0.00 | 0.00 | 16 | 1031.9 |
| 20260509234003 | 61 | 298 | 8.0 | 21.0 | 0.00 | 0.00 | 0.00 | 16 | 1031.9 |
| 20260509233717 | 61 | 298 | 8.0 | 21.0 | 0.00 | 0.00 | 0.00 | 16 | 1031.9 |
| 20260509233003 | 61 | 282 | 7.0 | 17.0 | 0.00 | 0.00 | 0.00 | 18 | 1032.0 |
| 20260509232503 | 61 | 267 | 5.0 | 11.0 | 0.00 | 0.00 | 0.00 | 16 | 1031.9 |
| 20260509232003 | 61 | 284 | 8.0 | 27.0 | 0.00 | 0.00 | 0.00 | 18 | 1031.8 |
| 20260509231503 | 61 | 290 | 10.0 | 27.0 | 0.00 | 0.00 | 0.00 | 17 | 1032.0 |
| 20260509231003 | 61 | 302 | 7.0 | 19.0 | 0.00 | 0.00 | 0.00 | 17 | 1031.9 |
| 20260509230503 | 61 | 297 | 8.0 | 25.0 | 0.00 | 0.00 | 0.00 | 17 | 1031.7 |
| 20260509230003 | 62 | 274 | 7.0 | 25.0 | 0.00 | 0.00 | 0.00 | 17 | 1031.2 |
| 20260509225721 | 62 | 302 | 6.0 | 13.0 | 0.00 | 0.00 | 0.00 | 18 | 1031.6 |
| 20260509225003 | 62 | 310 | 4.0 | 11.0 | 0.00 | 0.00 | 0.00 | 17 | 1031.5 |
| 20260509224503 | 62 | 303 | 5.0 | 13.0 | 0.00 | 0.00 | 0.00 | 17 | 1031.4 |
| 20260509224003 | 63 | 293 | 5.0 | 13.0 | 0.00 | 0.00 | 0.00 | 16 | 1031.4 |
| 20260509223503 | 63 | 273 | 5.0 | 13.0 | 0.00 | 0.00 | 0.00 | 16 | 1031.3 |
| 20260509223003 | 63 | 259 | 4.0 | 13.0 | 0.00 | 0.00 | 0.00 | 16 | 1031.4 |
| 20260509222503 | 63 | 260 | 4.0 | 10.0 | 0.00 | 0.00 | 0.00 | 17 | 1031.2 |
| 20260509222003 | 63 | 284 | 6.0 | 15.0 | 0.00 | 0.00 | 0.00 | 16 | 1031.3 |
| 20260509221503 | 63 | 303 | 9.0 | 22.0 | 0.00 | 0.00 | 0.00 | 15 | 1031.3 |
| 20260509221218 | 63 | 296 | 9.0 | 22.0 | 0.00 | 0.00 | 0.00 | 15 | 1031.3 |
| 20260509220503 | 64 | 264 | 5.0 | 14.0 | 0.00 | 0.00 | 0.00 | 16 | 1031.4 |
| 20260509220004 | 65 | 295 | 5.0 | 13.0 | 0.00 | 0.00 | 0.00 | 16 | 1031.2 |
| 20260509215503 | 64 | 300 | 5.0 | 13.0 | 0.00 | 0.00 | 0.00 | 16 | 1031.4 |
| 20260509215220 | 64 | 298 | 6.0 | 13.0 | 0.00 | 0.00 | 0.00 | 15 | 1031.4 |
| 20260509214503 | 65 | 301 | 8.0 | 19.0 | 0.00 | 0.00 | 0.00 | 17 | 1031.7 |
| 20260509214003 | 65 | 276 | 8.0 | 18.0 | 0.00 | 0.00 | 0.00 | 18 | 1031.6 |
| 20260509213503 | 64 | 263 | 7.0 | 16.0 | 0.00 | 0.00 | 0.00 | 15 | 1031.6 |
| 20260509213003 | 64 | 259 | 7.0 | 23.0 | 0.00 | 0.00 | 0.00 | 14 | 1031.7 |
| 20260509212503 | 64 | 267 | 6.0 | 23.0 | 0.00 | 0.00 | 0.00 | 16 | 1031.6 |
| 20260509212003 | 64 | 293 | 6.0 | 19.0 | 0.00 | 0.00 | 0.00 | 16 | 1031.5 |
| 20260509211503 | 64 | 305 | 7.0 | 19.0 | 0.00 | 0.00 | 0.00 | 16 | 1031.7 |
| 20260509211003 | 64 | 300 | 8.0 | 27.0 | 0.00 | 0.00 | 0.00 | 16 | 1031.9 |
| 20260509210503 | 64 | 283 | 7.0 | 27.0 | 0.00 | 0.00 | 0.00 | 16 | 1031.8 |
| 20260509210004 | 64 | 303 | 6.0 | 15.0 | 0.00 | 0.00 | 0.00 | 17 | 1031.7 |
| 20260509205718 | 64 | 309 | 8.0 | 17.0 | 0.00 | 0.00 | 0.00 | 16 | 1031.9 |
| 20260509205220 | 64 | 312 | 8.0 | 17.0 | 0.00 | 0.00 | 0.00 | 16 | 1031.9 |
| 20260509204503 | 64 | 304 | 6.0 | 16.0 | 0.00 | 0.00 | 0.00 | 16 | 1032.0 |
| 20260509204003 | 64 | 262 | 4.0 | 14.0 | 0.00 | 0.00 | 0.00 | 18 | 1031.9 |
| 20260509203719 | 63 | 253 | 4.0 | 13.0 | 0.00 | 0.00 | 0.00 | 17 | 1032.0 |
| 20260509203003 | 64 | 289 | 7.0 | 15.0 | 0.00 | 0.00 | 0.00 | 17 | 1032.3 |
| 20260509202503 | 64 | 288 | 7.0 | 22.0 | 0.00 | 0.00 | 0.00 | 17 | 1032.2 |
| 20260509202003 | 63 | 283 | 6.0 | 22.0 | 0.00 | 0.00 | 0.00 | 17 | 1032.1 |
| 20260509201503 | 63 | 303 | 6.0 | 14.0 | 0.00 | 0.00 | 0.00 | 16 | 1032.2 |
| 20260509201003 | 63 | 295 | 6.0 | 16.0 | 0.00 | 0.00 | 0.00 | 20 | 1032.2 |
| 20260509200717 | 62 | 297 | 6.0 | 16.0 | 0.00 | 0.00 | 0.00 | 22 | 1032.4 |
| 20260509200220 | 62 | 273 | 4.0 | 13.0 | 0.00 | 0.00 | 0.00 | 20 | 1032.4 |
| 20260509195503 | 62 | 260 | 5.0 | 15.0 | 0.00 | 0.00 | 0.00 | 20 | 1032.4 |
| 20260509195221 | 62 | 258 | 6.0 | 15.0 | 0.00 | 0.00 | 0.00 | 21 | 1032.5 |
| 20260509194503 | 61 | 254 | 6.0 | 15.0 | 0.00 | 0.00 | 0.00 | 21 | 1032.6 |
| 20260509194003 | 62 | 262 | 6.0 | 15.0 | 0.00 | 0.00 | 0.00 | 21 | 1032.6 |
| 20260509193503 | 62 | 276 | 6.0 | 15.0 | 0.00 | 0.00 | 0.00 | 23 | 1032.6 |
| 20260509193003 | 62 | 276 | 6.0 | 15.0 | 0.00 | 0.00 | 0.00 | 22 | 1032.7 |
| 20260509192721 | 62 | 281 | 6.0 | 18.0 | 0.00 | 0.00 | 0.00 | 23 | 1032.6 |
| 20260509192003 | 61 | 286 | 6.0 | 18.0 | 0.00 | 0.00 | 0.00 | 22 | 1033.0 |
| 20260509191503 | 60 | 302 | 5.0 | 16.0 | 0.00 | 0.00 | 0.00 | 25 | 1032.9 |
| 20260509191003 | 60 | 294 | 6.0 | 17.0 | 0.00 | 0.00 | 0.00 | 24 | 1032.9 |
| 20260509190718 | 60 | 277 | 6.0 | 17.0 | 0.00 | 0.00 | 0.00 | 24 | 1032.9 |
| 20260509190004 | 61 | 266 | 6.0 | 17.0 | 0.00 | 0.00 | 0.00 | 25 | 1032.9 |
| 20260509185719 | 60 | 270 | 6.0 | 17.0 | 0.00 | 0.00 | 0.00 | 23 | 1032.9 |
| 20260509185003 | 60 | 311 | 8.0 | 19.0 | 0.00 | 0.00 | 0.00 | 22 | 1033.1 |
| 20260509184503 | 60 | 315 | 10.0 | 19.0 | 0.00 | 0.00 | 0.00 | 23 | 1032.9 |
| 20260509184003 | 60 | 286 | 8.0 | 17.0 | 0.00 | 0.00 | 0.00 | 24 | 1033.2 |
| 20260509183503 | 60 | 258 | 5.0 | 14.0 | 0.00 | 0.00 | 0.00 | 25 | 1033.2 |
| 20260509183003 | 60 | 287 | 6.0 | 16.0 | 0.00 | 0.00 | 0.00 | 27 | 1033.2 |
| 20260509182717 | 59 | 284 | 7.0 | 16.0 | 0.00 | 0.00 | 0.00 | 26 | 1033.2 |
| 20260509182003 | 59 | 250 | 5.0 | 16.0 | 0.00 | 0.00 | 0.00 | 25 | 1033.3 |
| 20260509181718 | 59 | 244 | 4.0 | 11.0 | 0.00 | 0.00 | 0.00 | 26 | 1033.3 |
| 20260509181003 | 60 | 276 | 5.0 | 11.0 | 0.00 | 0.00 | 0.00 | 26 | 1033.2 |
| 20260509180503 | 60 | 305 | 4.0 | 11.0 | 0.00 | 0.00 | 0.00 | 26 | 1033.4 |
| 20260509180004 | 60 | 302 | 4.0 | 11.0 | 0.00 | 0.00 | 0.00 | 26 | 1033.3 |
| 20260509175503 | 60 | 299 | 5.0 | 12.0 | 0.00 | 0.00 | 0.00 | 27 | 1033.3 |
| 20260509175217 | 59 | 300 | 5.0 | 12.0 | 0.00 | 0.00 | 0.00 | 27 | 1033.3 |
| 20260509174503 | 59 | 306 | 4.0 | 13.0 | 0.00 | 0.00 | 0.00 | 26 | 1033.4 |
| 20260509174003 | 59 | 292 | 6.0 | 13.0 | 0.00 | 0.00 | 0.00 | 27 | 1033.3 |
| 20260509173504 | 59 | 292 | 5.0 | 12.0 | 0.00 | 0.00 | 0.00 | 26 | 1033.5 |
| 20260509173219 | 59 | 302 | 5.0 | 12.0 | 0.00 | 0.00 | 0.00 | 27 | 1033.5 |
| 20260509172503 | 58 | 300 | 4.0 | 11.0 | 0.00 | 0.00 | 0.00 | 27 | 1033.4 |
| 20260509172003 | 58 | 311 | 6.0 | 13.0 | 0.00 | 0.00 | 0.00 | 26 | 1033.5 |
| 20260509171503 | 58 | 313 | 6.0 | 13.0 | 0.00 | 0.00 | 0.00 | 27 | 1033.5 |
| 20260509171003 | 58 | 298 | 4.0 | 13.0 | 0.00 | 0.00 | 0.00 | 29 | 1033.6 |
| 20260509170503 | 57 | 243 | 4.0 | 9.0 | 0.00 | 0.00 | 0.00 | 28 | 1033.6 |
| 20260509170004 | 56 | 258 | 5.0 | 10.0 | 0.00 | 0.00 | 0.00 | 30 | 1033.6 |
| 20260509165503 | 56 | 252 | 6.0 | 12.0 | 0.00 | 0.00 | 0.00 | 29 | 1033.7 |
| 20260509165004 | 56 | 248 | 6.0 | 12.0 | 0.00 | 0.00 | 0.00 | 30 | 1033.6 |
| 20260509164503 | 56 | 267 | 5.0 | 11.0 | 0.00 | 0.00 | 0.00 | 31 | 1033.6 |
| 20260509164003 | 56 | 294 | 5.0 | 10.0 | 0.00 | 0.00 | 0.00 | 32 | 1033.6 |
| 20260509163717 | 56 | 292 | 5.0 | 10.0 | 0.00 | 0.00 | 0.00 | 31 | 1033.7 |
| 20260509163003 | 56 | 247 | 4.0 | 9.0 | 0.00 | 0.00 | 0.00 | 31 | 1033.6 |
| 20260509162503 | 56 | 265 | 3.0 | 9.0 | 0.00 | 0.00 | 0.00 | 32 | 1033.6 |
| 20260509162003 | 55 | 313 | 3.0 | 11.0 | 0.00 | 0.00 | 0.00 | 31 | 1033.6 |
| 20260509161504 | 55 | 309 | 4.0 | 11.0 | 0.00 | 0.00 | 0.00 | 31 | 1033.6 |
| 20260509161003 | 55 | 294 | 3.0 | 8.0 | 0.00 | 0.00 | 0.00 | 30 | 1033.7 |
| 20260509160720 | 55 | 293 | 3.0 | 9.0 | 0.00 | 0.00 | 0.00 | 32 | 1033.6 |
| 20260509160003 | 54 | 298 | 3.0 | 9.0 | 0.00 | 0.00 | 0.00 | 34 | 1033.7 |
| 20260509155503 | 54 | 298 | 5.0 | 11.0 | 0.00 | 0.00 | 0.00 | 32 | 1033.8 |
| 20260509155003 | 54 | 306 | 4.0 | 13.0 | 0.00 | 0.00 | 0.00 | 36 | 1033.7 |
| 20260509154716 | 54 | 312 | 4.0 | 13.0 | 0.00 | 0.00 | 0.00 | 34 | 1033.9 |
| 20260509154220 | 53 | 290 | 3.0 | 12.0 | 0.00 | 0.00 | 0.00 | 36 | 1033.7 |
| 20260509153503 | 53 | 298 | 5.0 | 12.0 | 0.00 | 0.00 | 0.00 | 37 | 1033.7 |
| 20260509153221 | 53 | 289 | 4.0 | 11.0 | 0.00 | 0.00 | 0.00 | 35 | 1033.9 |
| 20260509152503 | 53 | 272 | 3.0 | 7.0 | 0.00 | 0.00 | 0.00 | 39 | 1033.8 |
| 20260509152221 | 53 | 283 | 3.0 | 10.0 | 0.00 | 0.00 | 0.00 | 39 | 1033.8 |
| 20260509151503 | 52 | 302 | 4.0 | 10.0 | 0.00 | 0.00 | 0.00 | 39 | 1033.7 |
| 20260509151003 | 52 | 310 | 3.0 | 11.0 | 0.00 | 0.00 | 0.00 | 40 | 1033.8 |
| 20260509150503 | 51 | 294 | 2.0 | 11.0 | 0.00 | 0.00 | 0.00 | 39 | 1033.7 |
| 20260509150003 | 51 | 299 | 2.0 | 8.0 | 0.00 | 0.00 | 0.00 | 40 | 1033.7 |
| 20260509145503 | 50 | 316 | 3.0 | 8.0 | 0.00 | 0.00 | 0.00 | 40 | 1033.7 |